TITAN 3C TRANSTAGE DEB, 43449

Orbit data source: Space-Track

TITAN 3C TRANSTAGE DEB, 43449 is space debris in GEO originally from a launch on Sun, 09 Feb 1969 UTC launched from the Air Force Eastern Test Range (AFETR). Debris objects in space refer to the collection of defunct objects orbiting the Earth. Examples of debris include non-operational satellites, rocket bodies, and fragments generated from explosions, collisions, or faulty payload assembly.

Loading next visibility...
Identifier
43449, 1969-013J
Orbit
GEO
Country
Flag of USUS
Related business
Manufacturer
Martin Marietta
Mission
Spacecraft
Bus & Motor
Unknown
Mass
Unknown
Launch date (UTC)
1969-02-09 (57 years ago)
Launch vehicle
Unknown
Launch site
Air Force Eastern Test Range (AFETR)
Object type
Payload
Rocket body
Debris
Shape & HBR
Unknown shape, 1.1 m
Radar Cross Section
RCS unknown

Expand to show TLE details & history
Last TLE update: 17 hours ago

TLE from 17 hours ago
0 TITAN 3C TRANSTAGE DEB
1 43449U 69013J   25293.30674689 -.00000121  00000-0  00000-0 0  9992
2 43449   0.8122  66.2705 0138573  77.1897 217.5117  0.96590622 26518
Epoch: 2025-10-20T07:21Z
TLE epoch observation values (Epoch: 2025-10-20T07:21:42.931Z)
Latitude
-0.7248°
Longitude
-139.43792°
Altitude
37,329.635 km
Speed
3.003 km/s
True Right ascension
00h 00m 00s
True Declination
0° 43' 27"
Sunlit
Object was in daylight at epoch
Visualization orbit readout
Latitude
Unknown
Longitude
Unknown
Altitude
Unknown
Speed
Unknown
Apparent Right ascension
Unknown
Apparent Declination
Unknown
Sunlit
N/A
Visualization observer readout
Local Sidereal Time
19:46:59
Azimuth
Unknown
Elevation
Unknown
Doppler factor
Unknown
Orbital elements
Apogee altitude
37,451.297 km
Perigee altitude
36,253.185 km
Semi-major axis
43,230.378 km
Eccentricity
0.01386
Inclination
0.8122°
RAAN
66.2705°
Arg. of periapsis
77.1897°
True anomaly
216.55793°
Mean anomaly
217.5117°
Eccentric anomaly
217.03351°
Mean motion
0.24147 °/min
Orbital period
1,490.88 mins
BSTAR
0
Loading maneuver chart data...
Computing Atmospheric mass density...

Documentation

Showing up to 5 results
|